Weather History for Roswell, NM

Change the Weather History Date:

Thursday, February 7, 2013

  Actual Average Record
Temperature  
Mean Temperature 51 °F 44 °F  
Max Temperature 63 °F 59 °F 82 °F (1963)
Min Temperature 38 °F 29 °F -15 °F (1933)
Degree Days  
Heating Degree Days 14 21  
Month to date heating degree days 116 151  
Since 1 July heating degree days 2029 2317  
Cooling Degree Days 0 0  
Month to date cooling degree days 0 0  
Year to date cooling degree days 0 0  
Growing Degree Days 4 (Base 50)    
Moisture  
Dew Point 24 °F    
Average Humidity 34    
Maximum Humidity 45    
Minimum Humidity 23    
Precipitation  
Precipitation 0.00 in 0.02 in 0.46 in (1913)
Month to date precipitation 0.00 0.10  
Year to date precipitation 0.41 0.48  
Sea Level Pressure  
Sea Level Pressure 30.00 in    
Wind  
Wind Speed 8 mph (NNE)    
Max Wind Speed 21 mph    
Max Gust Speed 25 mph    
Visibility 10 miles    
Events      
T = Trace of Precipitation, MM = Missing Value Source: NWS Daily Summary

Daily Weather History Graph

Daily Weather History Graph

Search for Another Location

Airport:

Trip Planner

Search our weather history database for the weather conditions in past years. The results will help you decide how hot, cold, wet, or windy it might be!

Date:

Astronomy

Feb. 07, 2013 Rise Set
Actual Time 6:49 AM MST 5:35 PM MST
Civil Twilight 6:23 AM MST 6:01 PM MST
Nautical Twilight 5:53 AM MST 6:31 PM MST
Astronomical Twilight 5:24 AM MST 7:00 PM MST
Moon 4:26 AM MST (2/7) 3:07 PM MST (2/7)
Length of Visible Light 11h 38m
Length of Day
10h 46m
Waning Crescent, 8% of the Moon is Illuminated
Feb 7
Waning Crescent
Feb 10
New
Feb 17
First Quarter
Feb 25
Full
Mar 4
Last Quarter

Hourly Weather History & Observations

Time (MST) Temp. Windchill Dew Point Humidity Pressure Visibility Wind Dir Wind Speed Gust Speed Precip Events Conditions
12:51 AM 50.0 °F - 25.0 °F 38% 29.81 in 10.0 mi West 8.1 mph - N/A   Clear
1:51 AM 48.0 °F - 26.1 °F 42% 29.81 in 10.0 mi WNW 9.2 mph - N/A   Clear
2:51 AM 46.9 °F - 24.1 °F 41% 29.82 in 10.0 mi WNW 9.2 mph - N/A   Clear
3:51 AM 48.0 °F - 25.0 °F 41% 29.83 in 10.0 mi WNW 10.4 mph - N/A   Clear
4:51 AM 48.0 °F - 24.1 °F 39% 29.88 in 10.0 mi North 10.4 mph - N/A   Partly Cloudy
5:51 AM 46.9 °F - 24.1 °F 41% 29.92 in 10.0 mi NNW 3.5 mph - N/A   Overcast
6:51 AM 44.1 °F 39.0 °F 24.1 °F 45% 29.97 in 10.0 mi NNE 9.2 mph - N/A   Scattered Clouds
7:51 AM 45.0 °F 40.6 °F 23.0 °F 42% 30.01 in 10.0 mi North 8.1 mph - N/A   Clear
8:51 AM 51.1 °F - 24.1 °F 35% 30.04 in 10.0 mi NNE 10.4 mph - N/A   Clear
9:51 AM 54.0 °F - 24.1 °F 31% 30.05 in 10.0 mi NNE 19.6 mph 24.2 mph N/A   Clear
10:51 AM 55.9 °F - 25.0 °F 30% 30.06 in 10.0 mi NNE 15.0 mph - N/A   Clear
11:51 AM 59.0 °F - 26.1 °F 28% 30.04 in 10.0 mi NNE 11.5 mph - N/A   Clear
12:51 PM 60.1 °F - 26.1 °F 27% 30.01 in 10.0 mi NNE 10.4 mph - N/A   Clear
1:51 PM 63.0 °F - 25.0 °F 24% 29.99 in 10.0 mi North 10.4 mph - N/A   Clear
2:51 PM 62.1 °F - 25.0 °F 24% 29.99 in 10.0 mi ENE 5.8 mph - N/A   Clear
3:51 PM 62.1 °F - 24.1 °F 23% 29.99 in 10.0 mi North 8.1 mph - N/A   Scattered Clouds
4:51 PM 61.0 °F - 23.0 °F 23% 30.01 in 10.0 mi Calm Calm - N/A   Mostly Cloudy
5:51 PM 57.0 °F - 25.0 °F 29% 30.04 in 10.0 mi ENE 8.1 mph - N/A   Mostly Cloudy
6:51 PM 52.0 °F - 24.1 °F 34% 30.07 in 10.0 mi ENE 8.1 mph - N/A   Scattered Clouds
7:51 PM 48.0 °F - 24.1 °F 39% 30.11 in 10.0 mi East 4.6 mph - 0.00 in   Clear
8:51 PM 46.9 °F - 21.9 °F 37% 30.11 in 10.0 mi East 6.9 mph - N/A   Clear
9:51 PM 44.1 °F 41.5 °F 19.9 °F 38% 30.12 in 10.0 mi East 4.6 mph - N/A   Clear
10:51 PM 44.1 °F - 19.9 °F 38% 30.12 in 10.0 mi Calm Calm - N/A   Clear
11:51 PM 39.9 °F 35.8 °F 19.0 °F 43% 30.13 in 10.0 mi West 5.8 mph - N/A   Clear